Printer-friendly version
Follow the MPC on Twitter Follow the MPC on Facebook The MPC blog
Minor Planet Center

MPEC 2007-U85 : 1990 UO = 2007 UV3

The following Minor Planet Electronic Circular may be linked-to from your own Web pages, but must not otherwise be redistributed electronically.

A form allowing access to any MPEC is at the bottom of this page.


Read MPEC 2007-U84 Read MPEC 2007-U86


M.P.E.C. 2007-U85                                Issued 2007 Oct. 29, 17:43 UT

     The Minor Planet Electronic Circulars contain information on unusual
         minor planets and routine data on comets.  They are published
   on behalf of Commission 20 of the International Astronomical Union by the
          Minor Planet Center, Smithsonian Astrophysical Observatory,
                          Cambridge, MA 02138, U.S.A.

             Prepared using the Tamkin Foundation Computer Network

                              MPC@CFA.HARVARD.EDU
          URL http://www.cfa.harvard.edu/iau/mpc.html  ISSN 1523-6714

                              1990 UO = 2007 UV3

Additional Observations:
     J90U00O  C2007 09 18.42797 03 48 50.68 +19 56 31.4          21.4 V EU085G96
     J90U00O  C2007 09 18.43343 03 48 50.94 +19 56 27.3          21.8 V EU085G96
     J90U00O  C2007 09 18.43893 03 48 51.19 +19 56 23.6          21.5 V EU085G96
     J90U00O  C2007 09 18.44440 03 48 51.40 +19 56 19.4          21.5 V EU085G96

Observer details:
G96 Mt. Lemmon Survey.  Observer A. Boattini.  Measurers E. C. Beshore,
    A. Boattini, G. J. Garradd, A. R. Gibbs, A. D. Grauer, R. E. Hill,
    R. A. Kowalski, S. M. Larson, R. H. McNaught.  1.5-m reflector + CCD.

Orbital elements:
1990 UO = 2007 UV3                                       Earth MOID = 0.2033 AU
Epoch 2007 Oct. 27.0 TT = JDT 2454400.5                 MPC
M 314.85127              (2000.0)            P               Q
n   0.69930044     Peri.  333.41131     -0.97125595     -0.07295032
a   1.2570721      Node   205.68510     +0.05294594     -0.99424332
e   0.7731376      Incl.   31.51857     -0.23207457     +0.07847598
P   1.41           H   19.7           G   0.15           U   5
Residuals in seconds of arc
901022 691  0.6-  0.3+    071019 704  0.6+  0.6+    071022 H55  0.0   0.4-
901022 691  1.2-  0.4+    071019 704  0.5+  0.4+    071022 704  0.0   0.6+
901022 691  1.0-  0.5+    071019 704  0.3+  1.0+    071022 F84  0.8+  1.0+
901023 691  1.0+  0.6-    071020 704  1.0-  1.3+    071022 F84  0.7+  0.7+
901023 691  1.3+  0.1-    071020 H55  0.3-  0.4-    071022 F84  0.5+  0.6+
901023 691  0.4+  1.0-    071020 H55  0.3-  0.5-    071022 D21  0.5+  1.4-
901023 691  1.1+  0.5+    071020 H55  0.1-  0.4-    071022 D21  0.5+  0.8-
901023 691  0.2-  0.3+    071020 704  0.4-  0.2+    071022 D21  1.1+  0.0
901024 691  0.5-  0.0     071020 704  1.2-  0.2+    071023 704  1.1-  0.3-
901024 691  0.1+  0.8+    071020 704  0.6-  0.5+    071023 704  0.6-  0.3+
901024 691  0.2+  0.1-    071020 703  0.3-  0.8-    071023 704  0.4+  0.8+
901025 691  0.2-  0.2-    071020 701  0.0   0.2-    071023 704 (2.0-  1.0+)
901025 691  0.0   0.5+    071020 701  0.2+  0.8-    071023 704  0.3-  1.5+
901025 691  0.2-  0.4-    071020 703  0.1+  0.3-    071023 448  0.4+  0.2+
901026 691  0.1+  0.5+    071020 701 (1.4-  1.9-)   071023 448  0.2-  0.6-
901026 691  0.2+  0.4+    071020 703  0.5-  1.2-    071023 D21  1.4-  1.5-
901026 691  0.1+  0.0     071020 701  0.1-  0.3-    071023 D21  0.1-  0.2-
901028 691  0.2+  0.5-    071020 734  0.7+  0.9+    071023 D21  0.3+  0.5+
901028 691  0.1-  0.8-    071020 734  0.9+  0.8-    071024 G96  0.3+  0.4-
901028 691  0.8-  0.4-    071020 734  1.2-  1.3-    071024 G96  0.5-  0.2-
070918 G96  0.3+  0.4-    071020 734 (1.6+  2.3+)   071026 926  0.0   0.1-
070918 G96  0.5+  0.5-    071022 704  0.1+  0.6+    071026 926  0.2-  0.4+
070918 G96  0.5+  0.1-    071022 704  0.0   1.0+    071026 926  0.7+  0.6+
070918 G96  0.0   0.3-    071022 H55  0.0   0.5-
071019 704  0.2+  0.2+    071022 H55  0.1+  0.2-

Ephemeris:
1990 UO                  a,e,i = 1.26, 0.77, 32                  q = 0.2852
Date    TT    R. A. (2000) Decl.     Delta      r     Elong.  Phase     V
2007 10 27    03 48.72   -10 50.5    0.296    1.248   144.9    27.2    18.8
2007 11 06    03 13.46   -41 57.9    0.219    1.122   121.8    48.6    18.5
2007 11 16    00 07.25   -74 42.4    0.240    0.984    81.8    84.2    19.5
2007 11 26    18 30.72   -68 52.3    0.331    0.831    53.0   108.5    21.0
2007 12 06    17 22.64   -56 06.2    0.456    0.661    34.3   122.8    22.2

Timothy B. Spahr             (C) Copyright 2007 MPC           M.P.E.C. 2007-U85

Read MPEC 2007-U84 Read MPEC 2007-U86


MPEC number:

Enter an MPEC number in one of the following forms:

  • 1997-B01 (the full form)
  • J97B01 (the packed version of the full form)
  • B01 (the abbreviated form)

Valid HTML 4.01!